TimeEST,TemperatureF,Dew PointF,Humidity,Sea Level PressureIn,VisibilityMPH,Wind Direction,Wind SpeedMPH,Gust SpeedMPH,PrecipitationIn,Events,Conditions,WindDirDegrees,DateUTC
12:53 AM,30.9,12.0,46,30.38,10.0,South,6.9,-,N/A,,Clear,190,2013-11-14 05:53:00
1:53 AM,30.0,10.9,45,30.37,10.0,Calm,Calm,-,N/A,,Clear,0,2013-11-14 06:53:00
2:53 AM,26.1,12.9,58,30.35,10.0,SSE,3.5,-,N/A,,Clear,160,2013-11-14 07:53:00
3:53 AM,26.1,12.9,58,30.35,10.0,SSE,3.5,-,N/A,,Clear,150,2013-11-14 08:53:00
4:53 AM,27.0,12.0,53,30.34,10.0,South,6.9,-,N/A,,Clear,180,2013-11-14 09:53:00
5:53 AM,28.9,10.0,45,30.34,10.0,South,9.2,-,N/A,,Clear,190,2013-11-14 10:53:00
6:53 AM,30.0,9.0,41,30.35,10.0,South,8.1,-,N/A,,Clear,190,2013-11-14 11:53:00
7:53 AM,30.9,12.0,46,30.36,10.0,South,5.8,-,N/A,,Clear,180,2013-11-14 12:53:00
8:53 AM,37.9,12.0,35,30.35,10.0,Calm,Calm,-,N/A,,Clear,0,2013-11-14 13:53:00
9:53 AM,44.1,12.0,27,30.35,10.0,South,6.9,-,N/A,,Clear,190,2013-11-14 14:53:00
10:53 AM,48.9,9.0,20,30.33,10.0,SSW,6.9,-,N/A,,Clear,210,2013-11-14 15:53:00
11:53 AM,55.0,5.0,13,30.29,10.0,SW,8.1,-,N/A,,Clear,220,2013-11-14 16:53:00
12:53 PM,57.0,5.0,12,30.26,10.0,WSW,13.8,-,N/A,,Clear,250,2013-11-14 17:53:00
1:53 PM,55.9,7.0,14,30.25,10.0,WSW,10.4,-,N/A,,Clear,250,2013-11-14 18:53:00
2:53 PM,57.0,12.9,18,30.24,10.0,South,4.6,-,N/A,,Clear,180,2013-11-14 19:53:00
3:53 PM,55.9,12.9,18,30.24,10.0,South,4.6,-,N/A,,Clear,170,2013-11-14 20:53:00
4:53 PM,53.1,14.0,21,30.24,10.0,Calm,Calm,-,N/A,,Clear,0,2013-11-14 21:53:00
5:53 PM,44.1,15.1,31,30.25,10.0,SE,4.6,-,N/A,,Clear,140,2013-11-14 22:53:00
6:53 PM,39.0,18.0,43,30.25,10.0,Calm,Calm,-,N/A,,Clear,0,2013-11-14 23:53:00
7:53 PM,37.0,19.0,48,30.24,10.0,Calm,Calm,-,N/A,,Clear,0,2013-11-15 00:53:00
8:53 PM,33.1,21.0,61,30.24,8.0,Calm,Calm,-,N/A,,Clear,0,2013-11-15 01:53:00
9:53 PM,32.0,19.9,61,30.23,10.0,Calm,Calm,-,N/A,,Clear,0,2013-11-15 02:53:00
10:53 PM,30.0,21.0,69,30.22,10.0,SW,3.5,-,N/A,,Clear,220,2013-11-15 03:53:00
11:53 PM,30.0,19.9,66,30.22,10.0,Calm,Calm,-,N/A,,Clear,0,2013-11-15 04:53:00